When you browse on this site, cookies collect data to enhance your experience and personalize the content and advertising you see.
Visit our Privacy Policy to learn more. By continuing to use the site, you agree to this use of cookies and data.
  • în România
  • Lista ţărilor
  • Pe 7 zile
  • Temperatura apei
  • Meteo pe hartă
  • Widget-uri
  • user-avatar
    Intrare

    Meteo pe oră la Kamarang

    Astăzi, 23 Ianuarie, Joi

    Timp Temperatura Precipitaţii Vânt Presiune Umiditate
    00:00 +19°C° 0 mm 0 m/s 712 mmHg 91%
    01:00 +19°C° 0 mm 0 m/s 711 mmHg 94%
    02:00 +19°C° 0 mm 0 m/s 711 mmHg 98%
    03:00 +19°C° 0 mm 0 m/s 711 mmHg 98%
    04:00 +19°C° 0 mm 0 m/s 711 mmHg 98%
    05:00 +19°C° 0 mm 0 m/s 711 mmHg 97%
    06:00 +20°C° 0 mm 0 m/s 711 mmHg 94%
    07:00 +21°C° 0 mm 0 m/s 712 mmHg 90%
    08:00 +21°C° 0 mm 0 m/s 712 mmHg 86%
    09:00 +23°C° 0 mm 0 m/s 713 mmHg 78%
    10:00 +27°C° 0 mm 1 m/s 713 mmHg 69%
    11:00 +29°C° 0 mm 1 m/s 713 mmHg 60%
    12:00 +29°C° 0 mm 1 m/s 713 mmHg 59%
    13:00 +30°C° 0 mm 1 m/s 712 mmHg 58%
    14:00 +30°C° 0 mm 1 m/s 711 mmHg 57%
    15:00 +30°C° 0 mm 1 m/s 710 mmHg 58%
    16:00 +29°C° 0 mm 1 m/s 710 mmHg 59%
    17:00 +29°C° 0 mm 2 m/s 710 mmHg 61%
    18:00 +27°C° 0 mm 1 m/s 710 mmHg 70%
    19:00 +25°C° 0 mm 1 m/s 710 mmHg 80%
    20:00 +21°C° 0 mm 0 m/s 711 mmHg 89%
    21:00 +21°C° 0 mm 0 m/s 711 mmHg 90%
    22:00 +20°C° 0 mm 0 m/s 711 mmHg 91%
    23:00 +20°C° 0 mm 0 m/s 712 mmHg 92%

    Mâine, 24 Ianuarie, Vineri

    Timp Temperatura Precipitaţii Vânt Presiune Umiditate
    00:00 +19°C° 0 mm 0 m/s 711 mmHg 94%
    01:00 +19°C° 0 mm 0 m/s 711 mmHg 96%
    02:00 +18°C° 0 mm 0 m/s 711 mmHg 99%
    03:00 +18°C° 0 mm 0 m/s 711 mmHg 99%
    04:00 +18°C° 0 mm 0 m/s 711 mmHg 99%
    05:00 +18°C° 0 mm 0 m/s 711 mmHg 99%
    06:00 +19°C° 0 mm 0 m/s 712 mmHg 93%
    07:00 +20°C° 0 mm 0 m/s 712 mmHg 87%
    08:00 +22°C° 0 mm 0 m/s 713 mmHg 80%
    09:00 +24°C° 0 mm 0 m/s 713 mmHg 69%
    10:00 +29°C° 0 mm 1 m/s 714 mmHg 58%
    11:00 +31°C° 0 mm 1 m/s 714 mmHg 46%
    12:00 +32°C° 0 mm 1 m/s 713 mmHg 44%
    13:00 +32°C° 0 mm 2 m/s 712 mmHg 41%
    14:00 +34°C° 0 mm 2 m/s 712 mmHg 39%
    15:00 +32°C° 0 mm 2 m/s 711 mmHg 42%
    16:00 +31°C° 0 mm 2 m/s 711 mmHg 46%
    17:00 +30°C° 0 mm 2 m/s 710 mmHg 49%
    18:00 +27°C° 0 mm 2 m/s 710 mmHg 58%
    19:00 +25°C° 0 mm 1 m/s 711 mmHg 68%
    20:00 +20°C° 0 mm 0 m/s 711 mmHg 77%
    21:00 +20°C° 0 mm 0 m/s 712 mmHg 79%
    22:00 +19°C° 0 mm 0 m/s 712 mmHg 82%
    23:00 +19°C° 0 mm 0 m/s 712 mmHg 84%

    Poimâine, 25 Ianuarie, Sâmbătă

    Timp Temperatura Precipitaţii Vânt Presiune Umiditate
    00:00 +18°C° 0 mm 0 m/s 712 mmHg 88%
    01:00 +18°C° 0 mm 0 m/s 712 mmHg 92%
    02:00 +17°C° 0 mm 0 m/s 712 mmHg 96%
    03:00 +17°C° 0 mm 0 m/s 712 mmHg 97%
    04:00 +17°C° 0 mm 0 m/s 712 mmHg 98%
    05:00 +17°C° 0 mm 0 m/s 712 mmHg 99%
    06:00 +18°C° 0 mm 0 m/s 712 mmHg 93%
    07:00 +19°C° 0 mm 0 m/s 713 mmHg 87%
    08:00 +21°C° 0 mm 0 m/s 714 mmHg 81%
    09:00 +24°C° 0 mm 0 m/s 714 mmHg 68%
    10:00 +28°C° 0 mm 1 m/s 714 mmHg 55%
    11:00 +31°C° 0 mm 1 m/s 715 mmHg 42%
    12:00 +32°C° 0 mm 1 m/s 714 mmHg 39%
    13:00 +33°C° 0 mm 1 m/s 713 mmHg 36%
    14:00 +35°C° 0 mm 2 m/s 712 mmHg 33%
    15:00 +32°C° 0 mm 2 m/s 711 mmHg 37%
    16:00 +31°C° 0 mm 2 m/s 711 mmHg 41%
    17:00 +30°C° 0 mm 2 m/s 710 mmHg 45%
    18:00 +27°C° 0 mm 1 m/s 711 mmHg 54%
    19:00 +25°C° 0 mm 1 m/s 711 mmHg 63%
    20:00 +20°C° 0 mm 0 m/s 711 mmHg 72%
    21:00 +20°C° 0 mm 0 m/s 712 mmHg 75%
    22:00 +19°C° 0 mm 0 m/s 712 mmHg 77%
    23:00 +19°C° 0 mm 0 m/s 712 mmHg 80%

    26 Ianuarie, Duminică

    Timp Temperatura Precipitaţii Vânt Presiune Umiditate
    00:00 +18°C° 0 mm 0 m/s 712 mmHg 85%
    01:00 +18°C° 0 mm 0 m/s 712 mmHg 90%
    02:00 +17°C° 0 mm 0 m/s 711 mmHg 95%
    03:00 +18°C° 0 mm 0 m/s 712 mmHg 95%
    04:00 +18°C° 0 mm 0 m/s 712 mmHg 95%
    05:00 +18°C° 0 mm 0 m/s 712 mmHg 95%
    06:00 +19°C° 0 mm 0 m/s 713 mmHg 91%
    07:00 +20°C° 0 mm 0 m/s 713 mmHg 88%
    08:00 +21°C° 0 mm 0 m/s 714 mmHg 84%
    09:00 +23°C° 0 mm 0 m/s 714 mmHg 75%
    10:00 +25°C° 0 mm 0 m/s 714 mmHg 66%
    11:00 +27°C° 0 mm 0 m/s 714 mmHg 57%
    12:00 +31°C° 0 mm 1 m/s 713 mmHg 51%
    13:00 +32°C° 0 mm 1 m/s 713 mmHg 46%
    14:00 +34°C° 0 mm 1 m/s 712 mmHg 41%
    15:00 +32°C° 0 mm 1 m/s 711 mmHg 47%
    16:00 +31°C° 0 mm 2 m/s 711 mmHg 52%
    17:00 +30°C° 0 mm 2 m/s 710 mmHg 58%
    18:00 +28°C° 0 mm 1 m/s 711 mmHg 68%
    19:00 +25°C° 0 mm 1 m/s 711 mmHg 79%
    20:00 +23°C° 0 mm 1 m/s 712 mmHg 89%
    21:00 +23°C° 0 mm 1 m/s 712 mmHg 91%
    22:00 +21°C° 0 mm 0 m/s 712 mmHg 93%
    23:00 +20°C° 0 mm 0 m/s 713 mmHg 95%

    27 Ianuarie, Luni

    Timp Temperatura Precipitaţii Vânt Presiune Umiditate
    00:00 +21°C° 0.1 mm 0 m/s 712 mmHg 96%
    01:00 +21°C° 0.1 mm 0 m/s 712 mmHg 97%
    02:00 +21°C° 0.1 mm 0 m/s 712 mmHg 97%
    03:00 +20°C° 0.1 mm 0 m/s 712 mmHg 98%
    04:00 +20°C° 0.1 mm 0 m/s 712 mmHg 98%
    05:00 +20°C° 0.1 mm 0 m/s 712 mmHg 99%
    06:00 +21°C° 0 mm 0 m/s 713 mmHg 97%
    07:00 +21°C° 0 mm 0 m/s 713 mmHg 96%
    08:00 +21°C° 0 mm 0 m/s 714 mmHg 94%
    09:00 +24°C° 0 mm 0 m/s 714 mmHg 83%
    10:00 +26°C° 0 mm 0 m/s 714 mmHg 71%
    11:00 +30°C° 0 mm 1 m/s 714 mmHg 59%
    12:00 +31°C° 0 mm 1 m/s 713 mmHg 55%
    13:00 +32°C° 0 mm 1 m/s 713 mmHg 50%
    14:00 +34°C° 0 mm 2 m/s 712 mmHg 45%
    15:00 +32°C° 0.4 mm 2 m/s 711 mmHg 55%
    16:00 +30°C° 0.4 mm 2 m/s 711 mmHg 65%
    17:00 +28°C° 0.4 mm 2 m/s 710 mmHg 75%
    18:00 +26°C° 1.6 mm 1 m/s 711 mmHg 82%
    19:00 +25°C° 1.6 mm 1 m/s 711 mmHg 90%
    20:00 +23°C° 1.6 mm 1 m/s 712 mmHg 97%
    21:00 +21°C° 0.3 mm 0 m/s 712 mmHg 97%
    22:00 +21°C° 0.3 mm 0 m/s 713 mmHg 98%
    23:00 +20°C° 0.3 mm 0 m/s 713 mmHg 99%

    28 Ianuarie, Marţi

    Timp Temperatura Precipitaţii Vânt Presiune Umiditate
    00:00 +21°C° 0 mm 0 m/s 712 mmHg 99%
    01:00 +21°C° 0 mm 0 m/s 712 mmHg 99%
    02:00 +21°C° 0 mm 0 m/s 712 mmHg 99%
    03:00 +21°C° 0.1 mm 0 m/s 712 mmHg 99%
    04:00 +20°C° 0.1 mm 0 m/s 711 mmHg 99%
    05:00 +20°C° 0.1 mm 0 m/s 711 mmHg 99%
    06:00 +21°C° 0 mm 0 m/s 712 mmHg 98%
    07:00 +21°C° 0 mm 0 m/s 713 mmHg 96%
    08:00 +22°C° 0 mm 0 m/s 713 mmHg 95%
    09:00 +24°C° 0.1 mm 0 m/s 713 mmHg 82%
    10:00 +27°C° 0.1 mm 0 m/s 714 mmHg 69%
    11:00 +31°C° 0.1 mm 1 m/s 714 mmHg 55%
    12:00 +32°C° 0 mm 1 m/s 713 mmHg 52%
    13:00 +32°C° 0 mm 1 m/s 712 mmHg 49%
    14:00 +34°C° 0 mm 2 m/s 712 mmHg 47%
    15:00 +32°C° 0 mm 2 m/s 711 mmHg 51%
    16:00 +31°C° 0 mm 2 m/s 711 mmHg 56%
    17:00 +29°C° 0 mm 2 m/s 710 mmHg 61%
    18:00 +27°C° 0 mm 2 m/s 711 mmHg 71%
    19:00 +25°C° 0 mm 1 m/s 711 mmHg 81%
    20:00 +21°C° 0 mm 0 m/s 712 mmHg 91%
    21:00 +21°C° 0 mm 0 m/s 712 mmHg 93%
    22:00 +21°C° 0 mm 0 m/s 712 mmHg 95%
    23:00 +20°C° 0 mm 0 m/s 712 mmHg 97%
    Arată mai mult